Find Starlink 34425

NORAD ID: 64350 Int'l Des: 2025-126 Owner: SPXS Country: US Constellation: starlink operational
LEOCIRCULAR

Live-Position

3D-Globus wird geladen...

Über Starlink 34425

Beschreibung wird geladen...

Nächste Überflüge

Passes for default location (London). Set your location on the main map for personalized predictions.

Höhenverlauf

Loading altitude history...

Zweizeiliger Elementsatz

1 64350U 25126G 26105.96302433 .00002666 00000-0 23111-3 0 9999
2 64350 69.9993 300.5327 0002991 266.7334 93.3483 14.98341040 46269
Epoch: 15. Apr. 2026 • Age: 19 hours

Aktueller Status

Höhe 580.3 km
Geschwindigkeit 7.57 km/s
Subsatellitenpunkt -25.87°S, 170.26°E
Startdatum 13. Juni 2025
Alter 0.8 years
Typ internet

Technische Details

Klassifizierung Payload
Masse 575.00 kg
Trockenmasse 530.00 kg
Gesamtmasse 575.00 kg
Länge 0.30 m
Durchmesser 4.10 m
Spannweite 29.00 m
Form Box + pan
Hersteller SPXS
Bus-Typ Starlink V2MO
Phasenstatus In Orbit
Besitzer/Staat SPXS/US

Most Searched